Hourly Data Report for March 28, 2017

All times are specified in Local Standard Time (LST). Add 1 hour to adjust for Daylight Saving Time where and when it is observed.

TORONTO CITY
ONTARIO

43°40'00.000" N
79°24'00.000" W
112.50 m
6158355
71508
XTO

Download Data

Hourly Data (March 2017)
Hourly Data Report for March 28, 2017
TIME Temp Definition
°C
Dew Point Definition
°C
Rel Hum Definition
%
Wind Dir Definition
10's deg

Wind Spd Definition
km/h
Visibility Definition
km
Stn Press Definition
kPa
Hmdx Definition


Wind Chill Definition


Weather Definition


00:00 11.2 9.7 90 LegendMM LegendMM   99.82     LegendNANA
01:00 10.8 8.7 87 LegendMM LegendMM   99.82     LegendNANA
02:00 10.6 8.3 86 LegendMM LegendMM   99.81     LegendNANA
03:00 9.5 7.1 85 LegendMM LegendMM   99.81     LegendNANA
04:00 8.2 6.1 87 LegendMM LegendMM   99.83     LegendNANA
05:00 7.4 5.0 85 LegendMM LegendMM   99.87     LegendNANA
06:00 6.7 4.2 84 LegendMM LegendMM   99.95     LegendNANA
07:00 6.0 3.0 81 LegendMM LegendMM   100.01     LegendNANA
08:00 5.7 2.7 81 LegendMM LegendMM   100.07     LegendNANA
09:00 6.2 2.6 78 LegendMM LegendMM   100.13     LegendNANA
10:00 7.0 3.1 76 LegendMM LegendMM   100.16     LegendNANA
11:00 7.0 3.1 76 LegendMM LegendMM   100.19     LegendNANA
12:00 8.0 2.6 69 LegendMM LegendMM   100.16     LegendNANA
13:00 9.8 3.5 65 LegendMM LegendMM   100.17     LegendNANA
14:00 10.3 3.2 61 LegendMM LegendMM   100.18     LegendNANA
15:00 9.5 2.8 63 LegendMM LegendMM   100.24     LegendNANA
16:00 9.3 2.7 63 LegendMM LegendMM   100.31     LegendNANA
17:00 8.3 2.4 66 LegendMM LegendMM   100.39     LegendNANA
18:00 7.5 2.3 69 LegendMM LegendMM   100.48     LegendNANA
19:00 6.4 1.9 73 LegendMM LegendMM   100.58     LegendNANA
20:00 5.7 1.4 74 LegendMM LegendMM   100.65     LegendNANA
21:00 5.1 -0.2 69 LegendMM LegendMM   100.71     LegendNANA
22:00 4.7 -0.4 70 LegendMM LegendMM   100.74     LegendNANA
23:00 4.4 -0.7 70 LegendMM LegendMM   100.78     LegendNANA

Notes on Data Quality.

Legend

  • E = Estimated
  • M = Missing
  • NA = Not Available
Date modified: